STARLINK-33809, 63508

Orbit data source: Space-Track

STARLINK-33809, 63508 is a payload satellite owned by SpaceX/Seattle (US) in LEO that was launched on Mon, 07 Apr 2025 UTC via an FALCON 9 launch vehicle from the Air Force Western Test Range (AFWTR). Payload-class satellites include a variety of spacecraft equipped with specific instruments for various scientific and technological missions. These include communications satellites like Starlink; space stations such as the ISS; scientific satellites like the Hubble; Earth observation satellites from companies like Planet Labs, Umbra, and HawkEye 360; GPS; miniature CubeSats for education and research; and military/defense satellites.

Loading next visibility...
Identifier
63508, 2025-071R
Orbit
LEO
Country
Flag of USUS
Related business
Manufacturer
SpaceX/Seattle
Mission
Operational Commercial Communications
Bus & Motor
STARLINK V2MO, Unknown motor
Mass
575 kg wet, ~530 kg dry
Launch date (UTC)
2025-04-07 (7 months ago)
Launch vehicle
FALCON 9
Launch site
Air Force Western Test Range (AFWTR)
Object type
Payload
Rocket body
Debris
Shape & HBR
Box + 2 Pan, 17.7 m
Radar Cross Section
36.964 m², Large (>1 m²)

Expand to show TLE details & history
Last TLE update: 15 hours ago

TLE from 15 hours ago
0 STARLINK-33809
1 63508U 25071R   25303.66127303  .00041206  00000-0  13945-2 0  9995
2 63508  53.1594  23.7365 0001060  77.9540 282.1579 15.30226917 32809
Epoch: 2025-10-30T15:52Z
TLE epoch observation values (Epoch: 2025-10-30T15:52:13.989Z)
Latitude
-0.00008°
Longitude
106.4613°
Altitude
475.881 km
Speed
7.629 km/s
True Right ascension
01h 34m 56s
True Declination
0° 00' 00"
Sunlit
Object was in full shadow at epoch
Visualization orbit readout
Latitude
Unknown
Longitude
Unknown
Altitude
Unknown
Speed
Unknown
Apparent Right ascension
Unknown
Apparent Declination
Unknown
Sunlit
N/A
Visualization observer readout
Local Sidereal Time
02:16:45
Azimuth
Unknown
Elevation
Unknown
Doppler factor
Unknown
Orbital elements
Apogee altitude
476.118 km
Perigee altitude
474.665 km
Semi-major axis
6,853.528 km
Eccentricity
0.00011
Inclination
53.1594°
RAAN
23.7365°
Arg. of periapsis
77.954°
True anomaly
282.14603°
Mean anomaly
282.1579°
Eccentric anomaly
282.15196°
Mean motion
3.82536 °/min
Orbital period
94.11 mins
BSTAR
0.0013945
Loading maneuver chart data...
Computing Atmospheric mass density...
Loading historical data...
Loading historical data...
Loading historical data...
Loading historical data...
Loading historical data...
Loading historical data...
Loading historical data...

Documentation

Showing up to 5 results
|